LINGQIAO VIDEO B

导读

LINGQIAO VIDEO B是中国于2015年10月7日在酒泉卫星发射中心发射升空的视频卫星,它是“吉林一号”商业卫星组网中2颗视频卫星之一。作为中国商业航天发展初期的重要成果,该卫星具备视频成像能力,可提供动态遥感观测数据,推动了我国航天遥感领域商业化、产业化发展,为后续商业遥感卫星应用积累了宝贵技术与运营经验。

基本信息
目录编号:
40960
目录名称:
LINGQIAO VIDEO B
国际标识:
2015-057C
轨道中心:
EARTH
卫星名称:
LINGQIAO VIDEO B
卫星全名:
--
卫星状态:
在轨 (已飞行3992 天)
发射日期:
2015-10-07 UTC
国别 :
中国 (CN)
星等 :
--
该卫星已列入 空间交会检测服务 Space Conjunction Data Service (SCDS) ,当前飞行风险评估等级: 无高风险
轨道信息
数据来源 国际轨道数据 AOE轨道数据
星历时间 2026-09-11T14:37:49+0800
9小时前
查看轨道信息
2026-09-10T17:00:00+0800
1天前
查看轨道信息
半长轴 7015.055km 7015.067km
偏心率 0.0016979 0.0016942
轨道倾角 97.666° 97.666°
近地点辐角 355.010° 356.605°
升交点赤经 246.008° 245.152°
平近点角 5.094° 252.272°
近地点 625.007km 625.045km
远地点 648.829km 648.815km
周期 97.455分钟 97.456分钟
每日圈数 14.775976 14.775937
详细信息
使用方式:
暂无
2D轨道图
3D轨道图
轨道高度分析图
轨道倾角分析图
轨道综合分析图
查看轨道综合分析图
交会数据列表
事件ID 空间交会对象 最接近时刻(TCA) 交会距离 交会风险概率(CRP) 交会风险指数(CRI) 操作
CDM_260912-015304-096006-962421
2026-09-12T
01:53:48+0000
0.562 km
远距离
1.357162E-4 高风险 0.78
CDM_260913-151704-096006-926821
2026-09-13T
15:17:05+0000
1.240 km
极远距离
1.163084E-5 中风险 0.56
CDM_260913-041704-096006-889025
2026-09-13T
04:17:46+0000
1.975 km
极远距离
1.90461E-6 低风险 0.41
CDM_260914-023904-096006-962121
2026-09-14T
02:39:27+0000
2.317 km
极远距离
1.682803E-6 低风险 0.4
CDM_260913-035000-571604-096026
2026-09-13T
03:50:01+0000
2.841 km
极远距离
1.338862E-6 低风险 0.38
与全量物体交会距离演化趋势
与全量物体交会风险概率演化趋势